This demonstration page uses our WeatherBlox Daily Observations layout. Learn more.

Left ArrowRight Arrow

41.55636, -103.73856

Hourly Observations for May 22, 2020

Temp ( °F °C ) Dew Point ( °F °C ) Humidity (%) Winds ( mph kmh ) Pressure ( in mb ) Visibility ( mi km ) Precip ( " mm )
12:58 am 00:58 Mostly Cloudy 69 20.4 31 -0.5 25 25 NNW 14 22 29.81 1010 10 16 N/A
1:58 am 01:58 Mostly Cloudy 66 18.7 32 -0.2 28 28 NW 3 6 29.82 1010 10 16 N/A
2:58 am 02:58 Clear 66 18.8 29 -1.9 25 25 SSW 6 9 29.84 1011 10 16 N/A
3:58 am 03:58 Partly Cloudy 59 15.1 37 2.6 43 43 SSE 14 22 29.86 1011 10 16 N/A
4:58 am 04:58 Clear 56 13.4 37 2.9 49 49 S 9 15 29.86 1011 10 16 N/A
5:58 am 05:58 Clear 55 12.7 38 3.3 53 53 S 9 15 29.86 1011 10 16 N/A
6:58 am 06:58 Clear 56 13.1 42 5.8 61 61 S 17 28 29.85 1011 10 16 N/A
7:58 am 07:58 Clear 52 11.3 42 5.5 68 68 SSW 10 17 29.84 1011 10 16 N/A
8:58 am 08:58 Clear 53 11.7 46 7.5 76 76 SSW 16 26 29.83 1010 10 16 N/A
9:58 am 09:58 Clear 51 10.8 47 8.2 84 84 W 5 7 29.84 1011 10 16 N/A
10:58 am 10:58 Clear 52 11 46 7.8 81 81 WNW 6 9 29.84 1011 10 16 N/A
11:58 am 11:58 Sunny 48 8.9 42 5.5 79 79 NW 8 13 29.86 1011 10 16 N/A
12:58 pm 12:58 Sunny 48 9 44 6.6 85 85 SW 5 7 29.88 1012 10 16 N/A
1:58 pm 13:58 Sunny 56 13.3 47 8.3 72 72 W 3 6 29.86 1011 10 16 N/A
2:58 pm 14:58 Sunny 66 18.8 45 7.4 48 48 WSW 6 9 29.83 1010 10 16 N/A
3:58 pm 15:58 Sunny 71 21.7 42 5.4 35 35 SW 15 24 29.80 1009 10 16 N/A
4:58 pm 16:58 Sunny 74 23.3 38 3.4 27 27 SSW 17 28 29.79 1009 10 16 N/A
5:58 pm 17:58 Mostly Sunny 75 24.1 35 1.7 23 23 SSW 14 22 29.77 1008 10 16 N/A
6:58 pm 18:58 Mostly Sunny 76 24.5 35 1.6 22 22 SSW 14 22 29.75 1007 10 16 N/A
7:58 pm 19:58 Mostly Sunny 78 25.5 33 0.8 20 20 SW 7 11 29.72 1007 10 16 N/A
8:58 pm 20:58 Mostly Cloudy 77 25 31 -0.7 18 18 SSW 17 28 29.72 1007 10 16 N/A
9:58 pm 21:58 Mostly Sunny 79 26 32 undefined 18 18 S 15 24 29.69 1006 10 16 N/A
10:58 pm 22:58 Mostly Sunny 78 25.7 32 0.1 19 19 S 15 24 29.67 1005 10 16 N/A
11:58 pm 23:58 Sunny 76 24.6 36 2.4 24 24 SE 23 37 29.66 1004 10 16 N/A

Powered by AerisWeather